Regional Weather Roundup
Issued by NWS Kansas City/Pleasant Hill, MO

Home | Current Version | Previous Version | Text Only | Print | Product List | Glossary On
Versions: 1 2 3 4 5 6 7 8 9 10 11 12 13 14 15 16 17 18 19 20 21 22 23 24 25 26 27 28 29 30 31 32 33 34 35 36 37 38 39 40 41 42 43 44 45 46 47 48 49 50
296
ASUS43 KEAX 310010
RWREAX

WEATHER ROUNDUP FOR EASTERN KANSAS AND NORTHWEST MISSOURI
NATIONAL WEATHER SERVICE KANSAS CITY/PLEASANT HILL MO
700 PM CDT MON MAY 30 2016

KSZ040-057-103>105-MOZ028-029-037-043-310100-
...KANSAS CITY METROPOLITAN AREA...

CITY           SKY/WX    TMP DP  RH WIND       PRES   REMARKS
K.C. INTL      PTSUNNY   74  61  63 S16       29.95S
6HR MIN TEMP:  67; 6HR MAX TEMP:  86; 6HR PCP:  0.07;

K.C. DOWNTOWN  PTSUNNY   77  59  53 S16       29.95F
6HR MIN TEMP:  74; 6HR MAX TEMP:  86; 6HR PCP: TRACE;

LEES SUMMIT    CLOUDY    74  58  57 S12       29.98F
6HR MIN TEMP:  70; 6HR MAX TEMP:  81; 6HR PCP:  0.01;

OLATHE - IXD   SUNNY     75  60  59 SE12      29.96F
6HR MIN TEMP:  67; 6HR MAX TEMP:  83; 6HR PCP:  0.04;

OLATHE - OJC   MOSUNNY   73  61  65 S10       29.97S
6HR MIN TEMP:  63; 6HR MAX TEMP:  80; 6HR PCP:  0.03;

LAWRENCE       SUNNY     78  64  61 S17       29.93F

$$

MOZ001>008-011>017-020>025-030>033-038>040-044>046-053-054-310100-
...NORTHERN AND CENTRAL MISSOURI...

CITY           SKY/WX    TMP DP  RH WIND       PRES   REMARKS
ST. JOSEPH     LGT RAIN  77  66  68 S13G22    29.92F
6HR MIN TEMP:  71; 6HR MAX TEMP:  87; 6HR PCP: TRACE;

MOSBY          PTCLDY    73  57  56 S9        29.97S
WARRENSBURG    LGT RAIN  64  61  88 S5        29.98S
WHITEMAN AFB   CLOUDY    66  64  93 SW10      29.97S
6HR MIN TEMP:  65; 6HR MAX TEMP:  84; 6HR PCP:  0.13;

CLINTON        CLOUDY    66  64  94 SE6       29.99F
SEDALIA        LGT RAIN  68  63  84 S5        30.01S
6HR MIN TEMP:  66; 6HR MAX TEMP:  85; 6HR PCP:  0.06;

WARSAW         NOT AVBL
CHILLICOTHE      N/A     70  63  78 SW8       29.98S
6HR MIN TEMP:  68; 6HR MAX TEMP:  87; 6HR PCP:  0.01;

KIRKSVILLE     CLOUDY    78  66  66 SW20G30   29.98R
6HR MIN TEMP:  77; 6HR MAX TEMP:  85;


$$

MOZ041-047>049-056>058-063>065-088>090-097-310100-
...EASTERN AND SOUTHERN MISSOURI...

CITY           SKY/WX    TMP DP  RH WIND       PRES   REMARKS
ST. LOUIS INTL CLOUDY    78  56  46 SW5       29.99F
6HR MIN TEMP:  78; 6HR MAX TEMP:  91; 6HR PCP: TRACE;

SPIRIT OF STL  CLOUDY    70  63  78 VRB5      29.97F
COLUMBIA       CLOUDY    71  61  70 W9        30.01S
JEFFERSON CITY CLOUDY    70  61  73 SW9       30.01F
ROLLA          LGT RAIN  66  63  90 W7        30.02S
SPRINGFIELD    LGT RAIN  70  62  76 E6        30.03R
BRANSON        LGT RAIN  66  66 100 CALM      30.04F
JOPLIN         LGT RAIN  69  66  90 SE8       30.00F
WEST PLAINS    CLOUDY    66  61  84 N7        30.06R

$$

IAZ060-094-KSZ022-034>040-054-083-096-NEZ052-066-093-310100-
...KANSAS...SOUTHEAST NEBRASKA AND IOWA...

CITY           SKY/WX    TMP DP  RH WIND       PRES   REMARKS
TOPEKA         SUNNY     79  63  57 SE14      29.91F
6HR MIN TEMP:  79; 6HR MAX TEMP:  85;

MANHATTAN      SUNNY     81  62  52 S17G24    29.88F
EMPORIA        SUNNY     77  60  55 S18       29.93F
CHANUTE        SUNNY     74  61  63 SE16      29.96F
WICHITA        MOSUNNY   78  62  57 SE14      29.90F
OMAHA          CLOUDY    71  64  78 SE20      29.86F
LINCOLN        SUNNY     84  55  36 S13       29.84F
FALLS CITY     LGT RAIN  75  67  76 SE12      29.87F
LAMONI         CLOUDY    74  63  68 SW10      29.95R
DES MOINES     CLOUDY    82  59  45 S9        29.89S

$$





USA.gov is the U.S. government's official web portal to all federal, state and local government web resources and services.